Location: Badlands Tank
(34.7185°N, 107.0376°W)
Time: 13:55:10
(UTC+00:00)

Meteor 2-5 Rocket - Pass Details

Date: 14 November 2025
Orbit: 832 x 911 km, 81.2° (Epoch: 09 December)

Event Time Altitude Azimuth Distance (km) Brightness Sun altitude
Exits shadow 11:56:24 28° 328° (NNW) 1,623 4.8 -21.6°
Drops below altitude 10° 11:59:31 10° 351° (N) 2,557 6.0 -21.0°
Sets 12:02:08 0° 360° (N) 3,487 6.8 -20.5°
